TimeHST,TemperatureF,Dew PointF,Humidity,Sea Level PressureIn,VisibilityMPH,Wind Direction,Wind SpeedMPH,Gust SpeedMPH,PrecipitationIn,Events,Conditions,WindDirDegrees,DateUTC
12:45 AM,69.8,64.4,83,30.15,10.0,ENE,4.6,-,N/A,,Mostly Cloudy,70,2013-06-23 10:45:00
12:56 AM,70.0,64.9,84,30.09,10.0,NNE,5.8,-,N/A,,Mostly Cloudy,30,2013-06-23 10:56:00
1:26 AM,69.8,64.4,83,30.14,10.0,North,6.9,-,N/A,,Mostly Cloudy,10,2013-06-23 11:26:00
1:49 AM,69.8,64.4,83,30.13,10.0,NE,13.8,-,N/A,,Scattered Clouds,40,2013-06-23 11:49:00
1:56 AM,69.8,64.4,83,30.13,10.0,NNE,10.4,16.1,N/A,,Scattered Clouds,30,2013-06-23 11:56:00
2:32 AM,69.8,64.4,83,30.12,10.0,NE,5.8,-,N/A,,Mostly Cloudy,40,2013-06-23 12:32:00
2:56 AM,68.9,63.9,84,30.05,10.0,East,4.6,-,N/A,,Scattered Clouds,80,2013-06-23 12:56:00
3:56 AM,66.9,63.0,87,30.06,10.0,East,4.6,-,N/A,,Clear,80,2013-06-23 13:56:00
4:56 AM,68.0,64.9,90,30.05,10.0,NNE,8.1,-,N/A,,Clear,30,2013-06-23 14:56:00
5:56 AM,66.9,64.9,93,30.08,10.0,Calm,Calm,-,N/A,,Clear,0,2013-06-23 15:56:00
6:56 AM,70.9,65.8,84,30.09,10.0,NE,3.5,-,N/A,,Clear,50,2013-06-23 16:56:00
7:56 AM,74.8,63.9,69,30.10,10.0,Variable,3.5,-,N/A,,Partly Cloudy,0,2013-06-23 17:56:00
8:56 AM,79.9,63.9,58,30.09,10.0,NE,8.1,-,N/A,,Scattered Clouds,40,2013-06-23 18:56:00
9:56 AM,77.9,63.9,62,30.10,10.0,South,8.1,-,N/A,,Mostly Cloudy,190,2013-06-23 19:56:00
10:03 AM,78.8,64.4,61,30.16,10.0,Variable,5.8,-,N/A,,Overcast,0,2013-06-23 20:03:00
10:12 AM,78.8,64.4,61,30.17,10.0,South,5.8,-,N/A,,Mostly Cloudy,180,2013-06-23 20:12:00
10:56 AM,79.0,64.9,62,30.11,10.0,Variable,5.8,-,N/A,,Overcast,0,2013-06-23 20:56:00
11:56 AM,79.9,64.9,60,30.11,10.0,Variable,4.6,-,N/A,,Mostly Cloudy,0,2013-06-23 21:56:00
12:56 PM,77.9,64.9,64,30.10,10.0,Variable,4.6,-,N/A,,Overcast,0,2013-06-23 22:56:00
1:28 PM,82.4,66.2,58,30.14,10.0,NNE,16.1,19.6,N/A,,Mostly Cloudy,30,2013-06-23 23:28:00
1:56 PM,83.8,65.8,55,30.06,10.0,NE,21.9,-,N/A,,Partly Cloudy,40,2013-06-23 23:56:00
2:56 PM,82.9,65.8,56,30.06,10.0,NNE,16.1,-,N/A,,Mostly Cloudy,20,2013-06-24 00:56:00
3:56 PM,81.0,66.9,62,30.05,10.0,NE,18.4,26.5,N/A,,Mostly Cloudy,40,2013-06-24 01:56:00
4:56 PM,78.8,66.2,65,30.11,10.0,NNE,19.6,23.0,N/A,,Scattered Clouds,30,2013-06-24 02:56:00
5:56 PM,75.9,65.8,71,30.06,10.0,NNE,16.1,-,N/A,,Clear,30,2013-06-24 03:56:00
6:56 PM,72.9,65.8,79,30.08,10.0,NE,17.3,-,N/A,,Clear,40,2013-06-24 04:56:00
7:56 PM,72.0,66.9,84,30.09,10.0,NE,16.1,-,N/A,,Clear,40,2013-06-24 05:56:00
8:56 PM,70.9,65.8,84,30.09,10.0,NNE,12.7,-,N/A,,Mostly Cloudy,30,2013-06-24 06:56:00
9:56 PM,70.9,66.9,87,30.11,10.0,NE,13.8,-,N/A,,Scattered Clouds,40,2013-06-24 07:56:00
10:56 PM,69.8,66.2,88,30.18,10.0,NE,9.2,-,N/A,,Mostly Cloudy,40,2013-06-24 08:56:00
11:09 PM,71.6,66.2,83,30.17,10.0,ENE,12.7,-,N/A,,Mostly Cloudy,60,2013-06-24 09:09:00
11:26 PM,69.8,66.2,88,30.17,10.0,NE,13.8,20.7,N/A,,Scattered Clouds,50,2013-06-24 09:26:00
11:56 PM,70.0,66.9,90,30.10,10.0,NE,16.1,-,N/A,,Partly Cloudy,40,2013-06-24 09:56:00